Regional Weather Roundup
Issued by NWS

Home | Current Version | Previous Version | Graphics & Text | Print | Product List | Glossary On
Versions: 1 2 3 4 5 6 7 8 9 10 11 12 13 14 15 16 17 18 19 20 21 22 23 24 25 26 27 28 29 30 31 32 33 34 35 36 37 38 39 40 41 42 43 44 45 46 47 48 49 50
000
ASUS43 KLSX 041110
RWRMO

WEATHER SUMMARY FOR MISSOURI
NATIONAL WEATHER SERVICE SPRINGFIELD MO
600 AM CDT TUE AUG 04 2015

NOTE: "FAIR" INDICATES FEW OR NO CLOUDS BELOW 12,000 FEET WITH NO
       SIGNIFICANT WEATHER AND/OR OBSTRUCTIONS TO VISIBILITY.
       CURRENT SKY AND/OR WEATHER CONDITIONS ARE NOT AVAILABLE FOR
       CHILLICOTHE AND FARMINGTON.

MOZ001>031-035>038-043-044-053-054-041200-
...NORTHERN AND WESTERN MISSOURI...

CITY           SKY/WX    TMP DP  RH WIND       PRES   REMARKS
KANSAS CTY INT MOCLDY    72  67  84 E10       29.97R
KANSAS C DTWN  MOCLDY    74  67  78 E10       29.96R
LEE`S SUMMIT   CLOUDY    72  67  84 E8        29.98R
ST JOSEPH      MOCLDY    72  65  78 SE9G18    29.94F
CHILLICOTHE      N/A     71  65  81 SE5       29.97F
KIRKSVILLE     LGT RAIN  67  64  90 E5        29.99R

$$
MOZ066>068-077>081-088>096-101>105-041200-
...SOUTHWEST MISSOURI...

CITY           SKY/WX    TMP DP  RH WIND       PRES   REMARKS
SPRINGFIELD    PTCLDY    72  68  87 SE7       29.99R
JOPLIN         PTCLDY    75  65  70 SE3       29.96R

$$
MOZ032>034-039>042-045>050-055>058-069>072-041200-
...CENTRAL MISSOURI...

CITY           SKY/WX    TMP DP  RH WIND       PRES   REMARKS
COLUMBIA       CLEAR     69  66  90 E3        29.99R
JEFFERSON CITY CLEAR     72  66  81 CALM      29.98R
ROLLA          PTCLDY    69  68  96 CALM      29.98R FOG
SEDALIA        PTCLDY    71  66  84 E5        30.00R
WHITEMAN AFB   PTCLDY    72  69  89 E9        29.97R
WARRENSBURG    PTCLDY    70  68  94 NE3       29.98R
OSAGE BEACH    PTCLDY    70  66  88 CALM      29.99R

$$
MOZ051-052-059>065-041200-
...EAST CENTRAL MISSOURI...

CITY           SKY/WX    TMP DP  RH WIND       PRES   REMARKS
ST LOUIS INTL  CLOUDY    76  65  68 NE6       29.99R
SPIRIT OF STL  MOCLDY    73  69  87 CALM      29.97R
ST CHARLES     CLOUDY    73  67  81 NE5       29.96S

$$
MOZ072>076-082>087-097>100-106>115-041200-
...SOUTH CENTRAL AND SOUTHEAST MISSOURI...

CITY           SKY/WX    TMP DP  RH WIND       PRES   REMARKS
CAPE GIRARDEAU CLEAR     72  71  97 S3        29.94S
FARMINGTON     PTCLDY    72  70  94 CALM      30.03R
POPLAR BLUFF   PTCLDY    73  72  96 CALM      29.94R
WEST PLAINS    CLEAR     69  65  86 CALM      30.02R

$$



USA.gov is the U.S. government's official web portal to all federal, state and local government web resources and services.